This is the latest recevied weather packets stored in our database for station/object KD2VWU. If no packets are shown the sender has not sent any weather packets the latest 10 day(s).
| Time | Temp. | Humidity | Pressure | Rain* | Wind** | Luminosity | Snow |
|---|---|---|---|---|---|---|---|
| 1778032328 | 17.78° C | 72% | 1006.8 hPa | 0 mm | - | - | - |
| 1778032024 | 17.78° C | 70% | 1006.8 hPa | 0 mm | - | - | - |
| 1778031720 | 18.33° C | 70% | 1006.7 hPa | 0 mm | - | - | - |
| 1778031418 | 17.78° C | 70% | 1006.7 hPa | 0 mm | - | - | - |
| 1778031115 | 17.78° C | 70% | 1006.7 hPa | 0 mm | - | - | - |
| 1778030811 | 18.33° C | 70% | 1006.4 hPa | 0 mm | - | - | - |
| 1778030508 | 18.33° C | 70% | 1006.5 hPa | 0 mm | - | - | - |
| 1778030206 | 18.33° C | 69% | 1006.3 hPa | 0 mm | - | - | - |
| 1778029901 | 18.33° C | 68% | 1006.3 hPa | 0 mm | - | - | - |
| 1778029600 | 18.89° C | 68% | 1006.3 hPa | 0 mm | - | - | - |
| 1778029297 | 18.89° C | 66% | 1006.2 hPa | 0 mm | - | - | - |
| 1778028994 | 19.44° C | 65% | 1006.1 hPa | 0 mm | - | - | - |
| 1778028691 | 19.44° C | 64% | 1006.1 hPa | 0 mm | - | - | - |
| 1778028387 | 20° C | 61% | 1006.1 hPa | 0 mm | - | - | - |
| 1778028085 | 20° C | 60% | 1005.9 hPa | 0 mm | - | - | - |
| 1778027781 | 20° C | 60% | 1006 hPa | 0 mm | - | - | - |
| 1778027477 | 20° C | 60% | 1005.9 hPa | 0 mm | - | - | - |
| 1778027173 | 20° C | 61% | 1005.7 hPa | 0 mm | - | - | - |
| 1778026869 | 20° C | 60% | 1005.5 hPa | 0 mm | - | - | - |
| 1778026565 | 20° C | 61% | 1005.7 hPa | 0 mm | - | - | - |
| 1778026263 | 20° C | 62% | 1005.6 hPa | 0 mm | - | - | - |
| 1778025960 | 20° C | 62% | 1005.7 hPa | 0 mm | - | - | - |
| 1778025657 | 20° C | 63% | 1005.7 hPa | 0 mm | - | - | - |
| 1778025355 | 20° C | 62% | 1005.6 hPa | 0 mm | - | - | - |
| 1778025052 | 20° C | 61% | 1005.5 hPa | 0 mm | - | - | - |
* Rain latest hour (hover to see other rain measurements)
** Current wind speed in m/s (hover to see current wind gust speed)